Hourly Weather Sol

Today, 15 July, Wednesday

Time Temperature Precipitation Wind Pressure Humidity
00:00 +12°C° 0 mm 1 mps 712 mmHg 91%
01:00 +11°C° 0 mm 1 mps 712 mmHg 92%
02:00 +11°C° 0 mm 1 mps 712 mmHg 92%
03:00 +11°C° 0 mm 1 mps 712 mmHg 92%
04:00 +11°C° 0 mm 1 mps 711 mmHg 92%
05:00 +13°C° 0 mm 1 mps 712 mmHg 87%
06:00 +15°C° 0 mm 1 mps 712 mmHg 82%
07:00 +16°C° 0 mm 1 mps 712 mmHg 76%
08:00 +19°C° 0 mm 1 mps 712 mmHg 67%
09:00 +21°C° 0 mm 1 mps 712 mmHg 58%
10:00 +23°C° 0 mm 2 mps 712 mmHg 49%
11:00 +23°C° 0 mm 2 mps 712 mmHg 48%
12:00 +24°C° 0 mm 2 mps 712 mmHg 47%
13:00 +24°C° 0 mm 3 mps 712 mmHg 46%
14:00 +24°C° 0.1 mm 2 mps 712 mmHg 51%
15:00 +23°C° 0.1 mm 2 mps 711 mmHg 56%
16:00 +23°C° 0.1 mm 2 mps 711 mmHg 61%
17:00 +20°C° 0.3 mm 2 mps 711 mmHg 69%
18:00 +19°C° 0.3 mm 2 mps 711 mmHg 78%
19:00 +18°C° 0.3 mm 1 mps 710 mmHg 86%
20:00 +16°C° 0 mm 1 mps 710 mmHg 88%
21:00 +15°C° 0 mm 1 mps 710 mmHg 90%
22:00 +14°C° 0 mm 1 mps 710 mmHg 92%
23:00 +14°C° 0 mm 1 mps 710 mmHg 92%

Tomorrow, 16 July, Thursday

Time Temperature Precipitation Wind Pressure Humidity
00:00 +14°C° 0 mm 1 mps 710 mmHg 92%
01:00 +14°C° 0 mm 1 mps 711 mmHg 91%
02:00 +14°C° 0.1 mm 1 mps 711 mmHg 93%
03:00 +14°C° 0.1 mm 1 mps 711 mmHg 94%
04:00 +14°C° 0.1 mm 1 mps 711 mmHg 95%
05:00 +14°C° 0.6 mm 1 mps 711 mmHg 95%
06:00 +14°C° 0.6 mm 1 mps 711 mmHg 96%
07:00 +14°C° 0.6 mm 1 mps 711 mmHg 96%
08:00 +15°C° 0.4 mm 1 mps 711 mmHg 92%
09:00 +16°C° 0.4 mm 1 mps 712 mmHg 88%
10:00 +18°C° 0.4 mm 1 mps 712 mmHg 84%
11:00 +18°C° 0.6 mm 1 mps 712 mmHg 82%
12:00 +19°C° 0.6 mm 1 mps 712 mmHg 80%
13:00 +20°C° 0.6 mm 1 mps 712 mmHg 78%
14:00 +19°C° 1.1 mm 1 mps 711 mmHg 80%
15:00 +18°C° 1.1 mm 2 mps 711 mmHg 82%
16:00 +17°C° 1.1 mm 2 mps 711 mmHg 85%
17:00 +18°C° 0.4 mm 1 mps 711 mmHg 87%
18:00 +16°C° 0.4 mm 1 mps 711 mmHg 89%
19:00 +15°C° 0.4 mm 1 mps 711 mmHg 91%
20:00 +14°C° 0 mm 1 mps 711 mmHg 92%
21:00 +12°C° 0 mm 0 mps 711 mmHg 92%
22:00 +11°C° 0 mm 0 mps 711 mmHg 93%
23:00 +11°C° 0 mm 0 mps 711 mmHg 93%

Day after tomorrow, 17 July, Friday

Time Temperature Precipitation Wind Pressure Humidity
00:00 +11°C° 0 mm 0 mps 711 mmHg 93%
01:00 +11°C° 0 mm 0 mps 711 mmHg 93%
02:00 +10°C° 0 mm 0 mps 711 mmHg 93%
03:00 +10°C° 0 mm 0 mps 711 mmHg 94%
04:00 +9°C° 0 mm 0 mps 710 mmHg 94%
05:00 +11°C° 0.1 mm 0 mps 711 mmHg 91%
06:00 +12°C° 0.1 mm 0 mps 711 mmHg 88%
07:00 +14°C° 0.1 mm 0 mps 711 mmHg 85%
08:00 +16°C° 0.3 mm 1 mps 712 mmHg 79%
09:00 +18°C° 0.3 mm 1 mps 712 mmHg 73%
10:00 +19°C° 0.3 mm 1 mps 712 mmHg 67%
11:00 +20°C° 0.4 mm 1 mps 712 mmHg 67%
12:00 +20°C° 0.4 mm 1 mps 711 mmHg 67%
13:00 +20°C° 0.4 mm 1 mps 711 mmHg 67%
14:00 +20°C° 0.9 mm 1 mps 711 mmHg 70%
15:00 +19°C° 0.9 mm 1 mps 711 mmHg 74%
16:00 +19°C° 0.9 mm 1 mps 711 mmHg 77%
17:00 +18°C° 0.6 mm 1 mps 711 mmHg 81%
18:00 +16°C° 0.6 mm 1 mps 711 mmHg 85%
19:00 +13°C° 0.6 mm 0 mps 711 mmHg 88%
20:00 +13°C° 0.4 mm 0 mps 711 mmHg 90%
21:00 +12°C° 0.4 mm 0 mps 711 mmHg 91%
22:00 +11°C° 0.4 mm 0 mps 711 mmHg 93%
23:00 +11°C° 0.4 mm 0 mps 711 mmHg 94%

18 July, Saturday

Time Temperature Precipitation Wind Pressure Humidity
00:00 +11°C° 0.4 mm 0 mps 711 mmHg 95%
01:00 +11°C° 0.4 mm 0 mps 711 mmHg 96%
02:00 +11°C° 0.2 mm 0 mps 711 mmHg 96%
03:00 +11°C° 0.2 mm 0 mps 711 mmHg 96%
04:00 +11°C° 0.2 mm 0 mps 711 mmHg 96%
05:00 +12°C° 0.2 mm 1 mps 711 mmHg 95%
06:00 +13°C° 0.2 mm 1 mps 712 mmHg 94%
07:00 +14°C° 0.2 mm 1 mps 712 mmHg 93%
08:00 +15°C° 0.5 mm 1 mps 712 mmHg 90%
09:00 +16°C° 0.5 mm 1 mps 712 mmHg 86%
10:00 +17°C° 0.5 mm 2 mps 712 mmHg 83%
11:00 +18°C° 0.5 mm 2 mps 712 mmHg 78%
12:00 +19°C° 0.5 mm 2 mps 712 mmHg 73%
13:00 +20°C° 0.5 mm 2 mps 712 mmHg 68%
14:00 +19°C° 0.7 mm 2 mps 712 mmHg 72%
15:00 +19°C° 0.7 mm 2 mps 712 mmHg 76%
16:00 +18°C° 0.7 mm 2 mps 712 mmHg 80%
17:00 +17°C° 0.3 mm 2 mps 712 mmHg 84%
18:00 +16°C° 0.3 mm 1 mps 712 mmHg 87%
19:00 +15°C° 0.3 mm 1 mps 711 mmHg 91%
20:00 +14°C° 0 mm 1 mps 712 mmHg 91%
21:00 +12°C° 0 mm 0 mps 712 mmHg 92%
22:00 +11°C° 0 mm 0 mps 712 mmHg 93%
23:00 +11°C° 0 mm 0 mps 712 mmHg 93%

19 July, Sunday

Time Temperature Precipitation Wind Pressure Humidity
00:00 +11°C° 0 mm 0 mps 712 mmHg 92%
01:00 +11°C° 0 mm 0 mps 712 mmHg 91%
02:00 +11°C° 0 mm 0 mps 712 mmHg 91%
03:00 +11°C° 0 mm 0 mps 712 mmHg 91%
04:00 +10°C° 0 mm 0 mps 712 mmHg 91%
05:00 +12°C° 0 mm 0 mps 712 mmHg 88%
06:00 +15°C° 0 mm 1 mps 712 mmHg 85%
07:00 +16°C° 0 mm 1 mps 712 mmHg 82%
08:00 +19°C° 0.1 mm 1 mps 712 mmHg 75%
09:00 +20°C° 0.1 mm 1 mps 713 mmHg 68%
10:00 +22°C° 0.1 mm 1 mps 713 mmHg 61%
11:00 +23°C° 0.2 mm 2 mps 713 mmHg 59%
12:00 +23°C° 0.2 mm 2 mps 712 mmHg 56%
13:00 +24°C° 0.2 mm 3 mps 712 mmHg 54%
14:00 +24°C° 0.2 mm 3 mps 712 mmHg 56%
15:00 +24°C° 0.2 mm 3 mps 712 mmHg 58%
16:00 +24°C° 0.2 mm 3 mps 712 mmHg 60%
17:00 +21°C° 0.2 mm 3 mps 712 mmHg 69%
18:00 +20°C° 0.2 mm 2 mps 711 mmHg 78%
19:00 +19°C° 0.2 mm 1 mps 711 mmHg 88%
20:00 +18°C° 0 mm 1 mps 711 mmHg 90%
21:00 +16°C° 0 mm 1 mps 711 mmHg 92%
22:00 +15°C° 0 mm 1 mps 712 mmHg 94%
23:00 +15°C° 0 mm 1 mps 712 mmHg 94%

20 July, Monday

Time Temperature Precipitation Wind Pressure Humidity
00:00 +14°C° 0 mm 1 mps 712 mmHg 94%
01:00 +14°C° 0 mm 1 mps 712 mmHg 94%
02:00 +14°C° 0 mm 1 mps 712 mmHg 94%
03:00 +14°C° 0 mm 1 mps 712 mmHg 94%
04:00 +14°C° 0 mm 1 mps 712 mmHg 94%
05:00 +15°C° 0 mm 1 mps 712 mmHg 90%
06:00 +18°C° 0 mm 1 mps 712 mmHg 87%
07:00 +20°C° 0 mm 1 mps 713 mmHg 83%
08:00 +21°C° 0.2 mm 1 mps 713 mmHg 78%
09:00 +22°C° 0.2 mm 1 mps 713 mmHg 73%
10:00 +24°C° 0.2 mm 1 mps 713 mmHg 68%
11:00 +24°C° 0.9 mm 1 mps 713 mmHg 70%
12:00 +23°C° 0.9 mm 1 mps 713 mmHg 72%
13:00 +23°C° 0.9 mm 2 mps 713 mmHg 74%
14:00 +23°C° 0.8 mm 1 mps 713 mmHg 77%
15:00 +22°C° 0.8 mm 1 mps 713 mmHg 80%
16:00 +22°C° 0.8 mm 1 mps 713 mmHg 83%
17:00 +21°C° 0.9 mm 1 mps 713 mmHg 86%
18:00 +20°C° 0.9 mm 1 mps 713 mmHg 88%
19:00 +17°C° 0.9 mm 0 mps 713 mmHg 91%
20:00 +16°C° 0.4 mm 0 mps 713 mmHg 92%
21:00 +15°C° 0.4 mm 0 mps 713 mmHg 93%
22:00 +14°C° 0.4 mm 0 mps 713 mmHg 94%
23:00 +14°C° 0.4 mm 0 mps 713 mmHg 95%
Show more